Haro Strait: Past 24 Hour Conditions

 

East Dellwood - 46207

09:00 PM PDT 30 June 2015Buoy position: 50.88N 129.93W
Disclaimer

This table is a summary of hourly weather conditions for the past 24 hours.
Please note that these observations might not always be representative of weather conditions over their associated marine area.

Date / Time
(PDT)
Wind(knots) Wave height(m) Wave period(s) Pressure(kPa) Air tempC) Water tempC)
30 June 2015
21:00 NNW 18 gust 19 1.7 5.0 102.6 15 15
20:00 NW 19 gust 21 1.7 6.0 102.6 15 15
19:00 NW 19 gust 21 1.7 6.0 102.6 15 15
18:00 NW 19 gust 21 1.5 6.0 102.6 15 15
17:00 NW 18 gust 21 1.5 6.0 102.7 15 15
16:00 NW 16 1.5 6.0 102.7 15 15
15:00 NW 16 gust 19 1.5 6.0 102.7 15 15
14:00 NW 16 gust 19 1.6 6.0 102.6 15 15
13:00 NW 16 gust 19 1.5 7.0 102.6 15 15
12:00 NNW 14 gust 19 1.7 6.0 102.6 15 15
11:00 NNW 16 gust 19 1.7 6.0 102.6 15 15
10:00 NNW 18 gust 21 1.9 6.0 102.5 15 15
9:00 NNW 18 gust 21 1.7 6.0 102.5 15 15
8:00 NNW 18 gust 21 1.8 6.0 102.4 15 15
7:00 NNW 18 gust 21 1.7 6.0 102.4 15 15
6:00 NW 18 gust 21 1.6 6.0 102.4 15 15
5:00 NNW 16 gust 19 1.7 6.0 102.3 15 15
4:00 NNW 18 gust 19 1.8 6.0 102.3 15 15
3:00 NW 16 N/A N/A 102.3 15 N/A
2:00 NNW 14 gust 18 1.6 6.0 102.2 15 15
1:00 NW 16 gust 19 1.5 6.0 102.2 15 16
0:00 NW 16 gust 18 1.3 5.0 102.1 15 16
29 June 2015
23:00 NW 14 gust 16 1.4 16.0 102.1 15 16
22:00 NW 12 gust 16 1.3 5.0 102.1 15 16
21:00 NW 14 gust 18 1.2 16.0 102.1 15 16

Zoom-in to make a selection

Map of Pacific - South Coast marine weather areas Tsawwassen Ferry Terminal South Nomad - 46036 Sentry Shoal - 46131 South Brooks - 46132 Halibut Bank - 46146 South Moresby - 46147 South Hecate Strait - 46185 West Sea Otter - 46204 La Perouse Bank - 46206 East Dellwood - 46207 Discovery Island Esquimalt Harbour Kelp Reefs Malahat Race Rocks Lightstation Saturna Island Sheringham Point University of Victoria Victoria Gonzales Victoria Int'l Airport Ballenas Islands Campbell River Airport Comox Airport Entrance Island Fanny Island Nanaimo Airport Port Hardy Airport Sisters Islets Estevan Point Sartine Island Solander Island Tofino Airport Grief Point Powell River Airport Sechelt Cape St.James Bella Bella Airport Bella Coola Airport Cathedral Point Herbert Island Point Atkinson Sand Heads Lightstation Vancouver Harbour Vancouver Int'l Airport West Vancouver Port Alberni Howe Sound - Pam Rocks Squamish Airport
Legend:
buoy Buoy
land station Land Station

Pacific - South Coast Area

Another Region

What we are doing

Date modified: